Regional Weather Roundup
Issued by NWS Jackson, KY

Home | Current Version | Previous Version | Text Only | Print | Product List | Glossary Off
Versions: 1 2 3 4 5 6 7 8 9 10 11 12 13 14 15 16 17 18 19 20 21 22 23 24 25 26 27 28 29 30 31 32 33 34 35 36 37 38 39 40 41 42 43 44 45 46 47 48 49 50

000
ASUS43 KJKL 051410
RWRJKL

EAST KENTUCKY HOURLY WEATHER ROUNDUP
NATIONAL WEATHER SERVICE JACKSON KY
1000 AM EDT SUN JUL 05 2015

NOTE: "FAIR" INDICATES FEW OR NO CLOUDS BELOW 12,000 FEET WITH
NO SIGNIFICANT WEATHER AND/OR OBSTRUCTIONS TO VISIBILITY.

* THESE REPORTS ARE NOT UNDER NWS QUALITY CONTROL AND MAY NOT
  REPORT WEATHER SUCH AS PRECIPITATION AND FOG.

KYZ079-080-083-085-087-088-110-112-115-119-120-051500
...EASTERN KENTUCKY...

CITY           SKY/WX    TMP DP  RH WIND       PRES   REMARKS
JACKSON        LGT RAIN  69  67  93 CALM      30.12R FOG
LONDON         RAIN      69  64  84 CALM      30.10S
SOMERSET*      LGT RAIN  68  68 100 NE5       30.10S
MONTICELLO*    PTSUNNY   71  70  97 CALM      30.11S
MIDDLESBORO*   DRIZZLE   69  69  99 CALM      30.10S
HARLAN APT*      N/A     68  68 100 CALM      30.11S
HAZARD APT*    CLOUDY    70  70 100 CALM      30.11
BLACK MTN*       N/A    N/A N/A N/A E3          N/A
PIKEVILLE APT* DRIZZLE   68  66  94 N3        30.12S
BIG SANDY*     LGT RAIN  69  69 100 CALM      30.12S
MOREHEAD APT*  CLOUDY    66  61  82 CALM      30.14R
$$

KYZ035-036-041-042-044-050-067-078-099-051500
...CENTRAL KENTUCKY...

CITY           SKY/WX    TMP DP  RH WIND       PRES   REMARKS
MT STERLING*   RAIN      66  66 100 CALM      30.13R
FLEMING/MASON* PTSUNNY   66  61  82 E3        30.13R
DANVILLE*      LGT RAIN  68  68 100 CALM      30.10S
RICHMOND*      CLOUDY    66  64  94 E5        30.10S
LEXINGTON      CLOUDY    71  62  73 E5        30.09F
FRANKFORT      CLOUDY    73  61  65 E9        30.08S
$$

KYZ091>093-OHZ055-061-077-WVZ005-015-034-035-042-051500
...SOUTHERN OHIO/WEST VIRGINIA...

CITY           SKY/WX    TMP DP  RH WIND       PRES   REMARKS
COVINGTON      CLOUDY    72  59  63 E7        30.10S
COLUMBUS       PTSUNNY   74  58  57 E6        30.11F
DAYTON         CLOUDY    74  60  61 E6        30.12F
WILMINGTON     CLOUDY    68  60  75 E3        30.11F
HUNTINGTON     CLOUDY    68  64  87 CALM      30.10S
CHARLESTON     CLOUDY    71  66  84 CALM      30.10F
PINEVILLE*     CLOUDY    71  69  95 MISG      30.20R
BECKLEY        CLOUDY    68  63  84 SE8       30.18S
BLUEFIELD      CLOUDY    69  64  84 CALM      30.20S
$$

VAZ002-007-008-TNZ017-027-036-066-071-051500
...SOUTHWEST VIRGINIA/EAST TENNESSEE...

CITY           SKY/WX    TMP DP  RH WIND       PRES   REMARKS
WISE*          CLOUDY    68  68 100 E3        30.18R
JONESVILLE*      N/A    N/A N/A N/A MISG        N/A
ABINGDON*      CLOUDY    73  70  88 E10       30.15S
BRISTOL        CLOUDY    72  69  90 VRB3      30.11S
KNOXVILLE      CLOUDY    71  67  87 S15       30.08R
OAK RIDGE      RAIN      70  68  93 S5        30.08S FOG
CROSSVILLE     CLOUDY    71  65  81 W9        30.11S
NASHVILLE      LGT RAIN  71  71 100 CALM      30.10R FOG
$$

...KEY TO REMARKS...
VSB - VISIBILITY IN MILES
WCI - WIND CHILL INDEX
HX  - HEAT INDEX

$$



USA.gov is the U.S. government's official web portal to all federal, state and local government web resources and services.